Regional Weather Roundup
Issued by NWS

Home | Current Version | Previous Version | Text Only | Print | Product List | Glossary Off
Versions: 1 2 3 4 5 6 7 8 9 10 11 12 13 14 15 16 17 18 19 20 21 22 23 24 25 26 27 28 29 30 31 32 33 34 35 36 37 38 39 40 41 42 43 44 45 46 47 48 49 50

000
ASUS45 KABQ 220801
RWRNM
WEATHER ROUNDUP FOR NEW MEXICO
NATIONAL WEATHER SERVICE ALBUQUERQUE NM
100 AM MST MON DEC 22 2014

NOTE: "FAIR" MEANS FEW OR NO CLOUDS BELOW 12,000 FEET AGL WITH NO
       SIGNIFICANT WEATHER OR OBSTRUCTIONS TO VISION.

      THIS PRODUCT IS RELEASED AS TWO VERSIONS.  ONE VERSION NEAR
      THE TOP OF THE HOUR CONTAINING PRELIMINARY DATA FROM ALBUQUERQUE
      AND OTHER STATIONS.  A FINAL VERSION WITH ADDITIONAL DATA IS
      ISSUED ABOUT 10 MINUTES AFTER THE HOUR.

NMZ501-503-504-510>518-220900-
NORTHWEST PLATEAU/NORTHCENTRAL MOUNTAINS

CITY           SKY/WX    TMP DP  RH WIND       PRES   REMARKS
FARMINGTON     CLEAR     32  29  88 CALM      29.92F
SANTA FE       PTCLDY    44  28  53 W22G36    29.83S
TAOS           PTCLDY    30  25  80 W9        29.83S WCI  22

$$
NMZ402-403-502-505>509-220900-
WESTCENTRAL MOUNTAINS/SOUTHWEST MOUNTAINS

CITY           SKY/WX    TMP DP  RH WIND       PRES   REMARKS
GALLUP         MOCLDY    34  30  85 SW12      30.03F WCI  25
GRANTS         CLEAR     40  31  70 NW9       29.99F WCI  34
SILVER CITY    MOCLDY    41  28  60 NW14      30.02F

$$
NMZ407-409-411-412-220900-
SOUTHERN DESERTS

CITY           SKY/WX    TMP DP  RH WIND       PRES   REMARKS
DEMING         CLOUDY    47  31  53 W13       29.99R
HOLLOMAN AFB   MOCLDY    35  29  78 N8        29.89R WCI  29
ALAMOGORDO     MOCLDY    39  28  65 SE7       29.91R WCI  34
T OR C         MOCLDY    53  31  42 N5        29.93F

$$
NMZ519>523-220900-
CENTRAL VALLEYS/CENTRAL HIGHLANDS

CITY           SKY/WX    TMP DP  RH WIND       PRES   REMARKS
ALBUQUERQUE    MOCLDY    34  28  79 SE8       29.91F WCI  27
DOUBLE EAGLE   PTCLDY    29  26  87 N3        29.91S
CLINES CORNERS MOCLDY    39  28  64 W24       29.84F WCI  28
BELEN          FAIR      48  32  54 W13G30    29.91F
SOCORRO        NOT AVBL

$$
NMZ524>526-539-540-220900-
SOUTHCENTRAL MOUNTAINS

CITY           SKY/WX    TMP DP  RH WIND       PRES   REMARKS
RUIDOSO        MOCLDY    46  27  46 W31G44    29.86F

$$
NMZ527>531-220900-
NORTHEAST HIGHLANDS/NORTHEAST PLAINS

CITY           SKY/WX    TMP DP  RH WIND       PRES   REMARKS
LAS VEGAS      PTCLDY    39  26  59 W15       29.75F WCI  31
RATON          MOCLDY    37  24  59 S7        29.65S WCI  32
CLAYTON        MOCLDY    42  28  57 NW8       29.64R

$$
NMZ532>537-220900-
EASTCENTRAL PLAINS

CITY           SKY/WX    TMP DP  RH WIND       PRES   REMARKS
TUCUMCARI      CLEAR     47  29  49 W15       29.63F
CANNON AFB     PTCLDY    41  27  58 W6        29.68F
CLOVIS AIRPORT CLEAR     46  28  49 W16       29.66F

$$
NMZ028-029-538-220900-
SOUTHEAST PLAINS

CITY           SKY/WX    TMP DP  RH WIND       PRES   REMARKS
ROSWELL        CLOUDY    44  28  53 S5        29.75S
ARTESIA        CLOUDY    54  28  37 W20       29.76S
CARLSBAD       CLOUDY    61  27  27 W23       29.73F
HOBBS          MOCLDY    54  27  35 W22       29.74R


$$



USA.gov is the U.S. government's official web portal to all federal, state and local government web resources and services.